�������l�o���
Date,Time,MP-1(��Sv/h),MP-2(��Sv/h),MP-3(��Sv/h),MP-4(��Sv/h),MP-5(��Sv/h),MP-6(��Sv/h),MP-7(��Sv/h),MP-8(��Sv/h),����,����(m/s),���J
2021/06/12,00:00,0.635,0.949,0.597,1.150,0.827,0.375,0.651,0.608,��,10.2,��
2021/06/12,00:10,0.635,0.945,0.595,1.150,0.829,0.375,0.651,0.607,��,10.0,��
2021/06/12,00:20,0.636,0.947,0.596,1.148,0.826,0.373,0.651,0.608,��,8.3,��
2021/06/12,00:30,0.636,0.946,0.595,1.151,0.828,0.373,0.651,0.609,��,9.3,��
2021/06/12,00:40,0.635,0.949,0.594,1.147,0.827,0.375,0.652,0.608,��,8.9,��
2021/06/12,00:50,0.634,0.943,0.593,1.149,0.827,0.374,0.651,0.609,��,7.9,��
2021/06/12,01:00,0.634,0.946,0.596,1.149,0.828,0.374,0.650,0.608,��,7.9,��
2021/06/12,01:10,0.636,0.946,0.594,1.150,0.827,0.374,0.652,0.609,��,8.5,��
2021/06/12,01:20,0.636,0.948,0.595,1.150,0.827,0.374,0.652,0.608,��,8.1,��
2021/06/12,01:30,0.637,0.947,0.593,1.148,0.829,0.375,0.652,0.608,��,8.7,��
2021/06/12,01:40,0.636,0.948,0.595,1.150,0.828,0.375,0.651,0.608,��,8.4,��
2021/06/12,01:50,0.634,0.946,0.595,1.149,0.827,0.375,0.652,0.609,��,8.8,��
2021/06/12,02:00,0.637,0.947,0.596,1.150,0.826,0.374,0.651,0.608,��,7.6,��
2021/06/12,02:10,0.634,0.946,0.595,1.150,0.828,0.374,0.650,0.608,��,7.0,��
2021/06/12,02:20,0.637,0.947,0.594,1.151,0.826,0.374,0.651,0.609,��,7.1,��
2021/06/12,02:30,0.636,0.946,0.595,1.149,0.828,0.377,0.652,0.607,��,7.5,��
2021/06/12,02:40,0.637,0.949,0.594,1.151,0.826,0.374,0.653,0.609,��,9.0,��
2021/06/12,02:50,0.636,0.948,0.594,1.152,0.829,0.376,0.652,0.608,��,9.3,��
2021/06/12,03:00,0.635,0.947,0.594,1.150,0.827,0.376,0.652,0.609,��,8.5,��
2021/06/12,03:10,0.638,0.949,0.595,1.150,0.828,0.374,0.653,0.609,��,8.3,��
2021/06/12,03:20,0.635,0.950,0.595,1.150,0.828,0.374,0.651,0.608,��,6.1,��
2021/06/12,03:30,0.636,0.949,0.594,1.150,0.827,0.375,0.651,0.607,��,7.1,��
2021/06/12,03:40,0.636,0.948,0.595,1.150,0.827,0.374,0.654,0.609,��,8.9,��
2021/06/12,03:50,0.636,0.948,0.595,1.150,0.827,0.374,0.651,0.609,��,8.7,��
2021/06/12,04:00,0.637,0.946,0.593,1.148,0.827,0.376,0.651,0.608,��,8.2,��
2021/06/12,04:10,0.636,0.949,0.593,1.150,0.827,0.375,0.652,0.607,��,8.6,��
2021/06/12,04:20,0.635,0.946,0.595,1.149,0.828,0.376,0.654,0.608,��,8.6,��
2021/06/12,04:30,0.637,0.947,0.596,1.150,0.829,0.374,0.653,0.609,��쐼,7.1,��
2021/06/12,04:40,0.637,0.946,0.595,1.149,0.826,0.374,0.650,0.609,��,8.4,��
2021/06/12,04:50,0.637,0.946,0.596,1.150,0.829,0.374,0.652,0.607,��,7.3,��
2021/06/12,05:00,0.638,0.947,0.593,1.152,0.827,0.376,0.651,0.609,��,6.9,��
2021/06/12,05:10,0.635,0.946,0.594,1.149,0.828,0.374,0.651,0.608,��,8.2,��
2021/06/12,05:20,0.636,0.946,0.594,1.151,0.829,0.375,0.652,0.608,��,7.5,��
2021/06/12,05:30,0.637,0.947,0.594,1.148,0.828,0.374,0.652,0.608,��,7.7,��
2021/06/12,05:40,0.635,0.948,0.594,1.146,0.828,0.374,0.653,0.608,��,6.6,��
2021/06/12,05:50,0.634,0.946,0.595,1.149,0.827,0.376,0.654,0.608,��,6.0,��
2021/06/12,06:00,0.636,0.947,0.594,1.150,0.827,0.374,0.651,0.607,��,6.2,��
2021/06/12,06:10,0.636,0.947,0.595,1.149,0.829,0.374,0.652,0.607,��,5.2,��
2021/06/12,06:20,0.636,0.949,0.595,1.149,0.828,0.374,0.652,0.608,��,4.9,��
2021/06/12,06:30,0.636,0.946,0.594,1.149,0.828,0.374,0.652,0.609,��,4.8,��
2021/06/12,06:40,0.636,0.948,0.594,1.149,0.828,0.373,0.651,0.608,��,3.7,��
2021/06/12,06:50,0.636,0.947,0.594,1.150,0.827,0.375,0.651,0.609,��,5.1,��
2021/06/12,07:00,0.635,0.947,0.594,1.150,0.829,0.373,0.650,0.609,��,7.2,��
2021/06/12,07:10,0.637,0.943,0.596,1.149,0.828,0.372,0.653,0.608,��,6.9,��
2021/06/12,07:20,0.635,0.944,0.596,1.152,0.827,0.373,0.652,0.609,��,7.7,��
2021/06/12,07:30,0.637,0.947,0.594,1.149,0.827,0.372,0.652,0.608,��,7.0,��
2021/06/12,07:40,0.637,0.945,0.593,1.150,0.828,0.374,0.651,0.608,��,5.8,��
2021/06/12,07:50,0.635,0.945,0.596,1.150,0.828,0.373,0.649,0.609,��쓌,6.3,��
2021/06/12,08:00,0.638,0.947,0.593,1.149,0.826,0.372,0.650,0.606,��쓌,7.7,��
2021/06/12,08:10,0.637,0.946,0.595,1.149,0.827,0.374,0.651,0.607,��쓌,8.9,��
2021/06/12,08:20,0.633,0.943,0.594,1.148,0.826,0.375,0.651,0.607,��,10.0,��
2021/06/12,08:30,0.636,0.946,0.593,1.146,0.826,0.373,0.651,0.607,��,11.0,��
2021/06/12,08:40,0.633,0.947,0.595,1.150,0.826,0.373,0.649,0.611,��쓌,11.6,��
2021/06/12,08:50,0.635,0.947,0.593,1.150,0.825,0.374,0.649,0.605,��,10.5,��
2021/06/12,09:00,0.633,0.945,0.595,1.149,0.827,0.374,0.650,0.606,��,10.7,��
2021/06/12,09:10,0.635,0.947,0.595,1.149,0.828,0.374,0.652,0.607,��,7.6,��
2021/06/12,09:20,0.637,0.944,0.594,1.150,0.826,0.375,0.651,0.606,��,7.8,��
2021/06/12,09:30,0.638,0.943,0.594,1.150,0.829,0.376,0.651,0.606,��,7.8,��
2021/06/12,09:40,0.636,0.945,0.593,1.150,0.830,0.375,0.653,0.608,��쓌,9.0,��
2021/06/12,09:50,0.636,0.945,0.594,1.151,0.828,0.374,0.651,0.606,��,8.8,��
2021/06/12,10:00,0.635,0.947,0.591,1.152,0.828,0.375,0.651,0.608,��,9.8,��
2021/06/12,10:10,0.637,0.945,0.593,1.150,0.828,0.374,0.652,0.607,��,9.0,��
2021/06/12,10:20,0.637,0.945,0.593,1.149,0.828,0.374,0.650,0.606,��,8.7,��
2021/06/12,10:30,0.638,0.944,0.594,1.147,0.828,0.374,0.649,0.607,��,8.6,��
2021/06/12,10:40,0.636,0.946,0.593,1.147,0.826,0.373,0.651,0.607,��,10.7,��
2021/06/12,10:50,0.636,0.945,0.594,1.149,0.829,0.374,0.650,0.607,��,11.3,��
2021/06/12,11:00,0.637,0.946,0.593,1.150,0.826,0.375,0.651,0.607,��,9.8,��
2021/06/12,11:10,0.637,0.945,0.593,1.151,0.830,0.374,0.651,0.605,��,8.7,��
2021/06/12,11:20,0.637,0.945,0.594,1.152,0.829,0.376,0.651,0.608,��,8.6,��
2021/06/12,11:30,0.639,0.947,0.594,1.152,0.829,0.376,0.651,0.607,��,8.8,��
2021/06/12,11:40,0.636,0.945,0.594,1.153,0.828,0.376,0.651,0.608,��,11.1,��
2021/06/12,11:50,0.637,0.946,0.593,1.150,0.829,0.376,0.651,0.607,��,12.2,��
2021/06/12,12:00,0.638,0.946,0.596,1.150,0.829,0.375,0.650,0.607,��,11.4,��
2021/06/12,12:10,0.638,0.947,0.595,1.150,0.828,0.375,0.653,0.607,��,13.8,��
2021/06/12,12:20,0.637,0.946,0.596,1.150,0.830,0.375,0.651,0.606,��,11.8,��
2021/06/12,12:30,0.638,0.946,0.596,1.149,0.830,0.376,0.652,0.607,��쓌,14.4,��
2021/06/12,12:40,0.638,0.948,0.593,1.149,0.830,0.377,0.651,0.607,��,11.3,��
2021/06/12,12:50,0.638,0.945,0.596,1.150,0.829,0.375,0.652,0.607,��,11.1,��
2021/06/12,13:00,0.639,0.948,0.596,1.149,0.830,0.377,0.652,0.607,��,10.9,��
2021/06/12,13:10,0.638,0.947,0.596,1.151,0.830,0.376,0.654,0.607,��,11.6,�L
2021/06/12,13:20,0.639,0.948,0.595,1.151,0.829,0.377,0.652,0.607,��쓌,10.9,�L
2021/06/12,13:30,0.639,0.947,0.596,1.150,0.830,0.378,0.652,0.608,��,9.3,��
2021/06/12,13:40,0.640,0.947,0.595,1.150,0.831,0.378,0.652,0.608,��쓌,11.3,��
2021/06/12,13:50,0.638,0.946,0.594,1.153,0.830,0.377,0.653,0.608,��,10.6,��
2021/06/12,14:00,0.640,0.948,0.594,1.152,0.831,0.377,0.652,0.609,��,12.4,��
2021/06/12,14:10,0.637,0.947,0.595,1.150,0.831,0.379,0.653,0.608,��쓌,11.6,��
2021/06/12,14:20,0.638,0.949,0.595,1.152,0.829,0.378,0.653,0.609,��,10.7,��
2021/06/12,14:30,0.639,0.948,0.596,1.154,0.831,0.377,0.653,0.608,��,10.0,��
2021/06/12,14:40,0.639,0.949,0.596,1.152,0.830,0.377,0.653,0.608,��쓌,13.0,��
2021/06/12,14:50,0.638,0.948,0.597,1.151,0.832,0.380,0.654,0.608,��쓌,9.6,��
2021/06/12,15:00,0.639,0.948,0.596,1.154,0.833,0.377,0.652,0.609,��쓌,13.5,��
2021/06/12,15:10,0.638,0.948,0.596,1.153,0.832,0.378,0.652,0.608,��쓌,13.0,��
2021/06/12,15:20,0.638,0.949,0.597,1.152,0.831,0.378,0.651,0.608,��쓌,12.0,��
2021/06/12,15:30,0.638,0.948,0.598,1.156,0.833,0.378,0.652,0.610,��,10.5,��
2021/06/12,15:40,0.638,0.949,0.596,1.154,0.834,0.377,0.655,0.608,��,9.6,��
2021/06/12,15:50,0.640,0.948,0.598,1.154,0.833,0.380,0.653,0.607,��,8.6,��
2021/06/12,16:00,0.639,0.949,0.596,1.152,0.832,0.377,0.652,0.608,��쓌,11.0,��
2021/06/12,16:10,0.640,0.948,0.596,1.155,0.832,0.378,0.654,0.607,��쓌,11.9,��
2021/06/12,16:20,0.639,0.948,0.595,1.154,0.832,0.378,0.653,0.607,��,12.7,��
2021/06/12,16:30,0.639,0.947,0.597,1.156,0.829,0.378,0.654,0.609,��,10.5,��
2021/06/12,16:40,0.640,0.949,0.597,1.155,0.832,0.379,0.653,0.608,��,11.3,��
2021/06/12,16:50,0.639,0.948,0.596,1.155,0.831,0.378,0.652,0.609,��,9.9,��
2021/06/12,17:00,0.639,0.949,0.598,1.153,0.833,0.378,0.654,0.608,��,10.3,��
2021/06/12,17:10,0.638,0.948,0.596,1.154,0.833,0.378,0.654,0.607,��,10.2,��
2021/06/12,17:20,0.639,0.949,0.597,1.154,0.831,0.378,0.652,0.606,��,9.5,��
2021/06/12,17:30,0.640,0.950,0.596,1.156,0.832,0.379,0.651,0.607,��,8.2,��
2021/06/12,17:40,0.640,0.949,0.597,1.155,0.831,0.377,0.654,0.606,��,8.6,��
2021/06/12,17:50,0.639,0.951,0.597,1.154,0.832,0.379,0.654,0.609,��,7.5,��
2021/06/12,18:00,0.639,0.950,0.597,1.154,0.831,0.378,0.654,0.609,��,7.5,��
2021/06/12,18:10,0.637,0.949,0.596,1.154,0.832,0.377,0.652,0.609,��,8.3,��
2021/06/12,18:20,0.638,0.949,0.599,1.155,0.832,0.380,0.654,0.610,��,7.2,��
2021/06/12,18:30,0.637,0.951,0.597,1.156,0.832,0.378,0.652,0.610,��,8.5,��
2021/06/12,18:40,0.638,0.950,0.598,1.156,0.834,0.378,0.652,0.611,��,7.3,��
2021/06/12,18:50,0.639,0.950,0.597,1.156,0.832,0.378,0.653,0.612,��,7.2,��
2021/06/12,19:00,0.638,0.949,0.597,1.156,0.832,0.378,0.652,0.610,��,8.3,��
2021/06/12,19:10,0.639,0.949,0.599,1.156,0.833,0.378,0.654,0.611,��,8.0,��
2021/06/12,19:20,0.640,0.949,0.597,1.157,0.833,0.378,0.654,0.610,��,8.5,��
2021/06/12,19:30,0.640,0.951,0.599,1.157,0.834,0.378,0.654,0.610,��,8.2,��
2021/06/12,19:40,0.639,0.951,0.598,1.159,0.834,0.377,0.652,0.610,��,8.3,��
2021/06/12,19:50,0.640,0.949,0.601,1.158,0.834,0.376,0.653,0.610,��,7.6,��
2021/06/12,20:00,0.640,0.951,0.599,1.160,0.835,0.377,0.654,0.610,��,7.4,��
2021/06/12,20:10,0.639,0.947,0.599,1.159,0.833,0.376,0.654,0.609,��,7.0,��
2021/06/12,20:20,0.639,0.950,0.600,1.160,0.834,0.378,0.654,0.611,��,7.1,��
2021/06/12,20:30,0.640,0.953,0.600,1.158,0.835,0.377,0.655,0.608,��,7.0,��
2021/06/12,20:40,0.639,0.954,0.600,1.160,0.835,0.377,0.654,0.609,��쐼,6.3,��
2021/06/12,20:50,0.640,0.950,0.599,1.158,0.835,0.377,0.654,0.609,��,5.9,��
2021/06/12,21:00,0.639,0.953,0.599,1.159,0.835,0.378,0.655,0.610,��,5.3,��
2021/06/12,21:10,0.640,0.951,0.600,1.161,0.834,0.377,0.655,0.609,��,5.9,��
2021/06/12,21:20,0.639,0.955,0.600,1.159,0.834,0.377,0.655,0.610,��,5.1,��
2021/06/12,21:30,0.637,0.951,0.599,1.160,0.833,0.377,0.655,0.611,��,5.7,��
2021/06/12,21:40,0.639,0.953,0.601,1.158,0.835,0.376,0.653,0.610,��,5.0,��
2021/06/12,21:50,0.639,0.952,0.599,1.158,0.835,0.377,0.655,0.610,��,4.7,��
2021/06/12,22:00,0.639,0.952,0.598,1.161,0.833,0.378,0.654,0.610,��,4.8,��
2021/06/12,22:10,0.639,0.954,0.599,1.158,0.833,0.377,0.653,0.609,��,4.2,��
2021/06/12,22:20,0.639,0.952,0.598,1.160,0.833,0.377,0.652,0.609,��,4.6,��
2021/06/12,22:30,0.639,0.950,0.598,1.159,0.832,0.376,0.655,0.611,��,4.3,��
2021/06/12,22:40,0.638,0.953,0.598,1.160,0.833,0.377,0.655,0.610,��,3.7,��
2021/06/12,22:50,0.640,0.948,0.597,1.157,0.834,0.377,0.655,0.610,��,4.3,��
2021/06/12,23:00,0.642,0.950,0.599,1.158,0.834,0.377,0.654,0.610,��,3.9,��
2021/06/12,23:10,0.640,0.952,0.598,1.159,0.834,0.376,0.656,0.609,��,4.1,��
2021/06/12,23:20,0.640,0.952,0.597,1.158,0.833,0.378,0.654,0.609,��,3.2,��
2021/06/12,23:30,0.640,0.951,0.597,1.161,0.834,0.376,0.653,0.610,��,2.8,��
2021/06/12,23:40,0.642,0.952,0.597,1.160,0.834,0.376,0.655,0.611,��,2.3,��
2021/06/12,23:50,0.640,0.951,0.596,1.157,0.834,0.376,0.654,0.610,��쐼,1.9,��
